This is the latest recevied weather packets stored in our database for station/object SQ6RR-11. If no packets are shown the sender has not sent any weather packets the latest 10 day(s).
| Time | Temp. | Humidity | Pressure | Rain* | Wind** | Luminosity | Snow |
|---|---|---|---|---|---|---|---|
| 1777806157 | 23.89° C | 20% | 1017.8 hPa | 0 mm | - | - | - |
| 1777805882 | 23.33° C | 18% | 1017.8 hPa | 0 mm | - | - | - |
| 1777805597 | 23.33° C | 19% | 1017.9 hPa | 0 mm | - | - | - |
| 1777805330 | 23.89° C | 18% | 1017.9 hPa | 0 mm | - | - | - |
| 1777805063 | 23.89° C | 20% | 1018 hPa | 0 mm | - | - | - |
| 1777804791 | 22.78° C | 20% | 1018 hPa | 0 mm | - | - | - |
| 1777804520 | 22.78° C | 18% | 1018 hPa | 0 mm | - | - | - |
| 1777804245 | 23.33° C | 17% | 1018 hPa | 0 mm | - | - | - |
| 1777803969 | 23.89° C | 21% | 1018.1 hPa | 0 mm | - | - | - |
| 1777803692 | 23.33° C | 19% | 1018.1 hPa | 0 mm | - | - | - |
| 1777803427 | 23.89° C | 21% | 1018.1 hPa | 0 mm | - | - | - |
| 1777803157 | 22.78° C | 20% | 1018.2 hPa | 0 mm | - | - | - |
| 1777802867 | 22.78° C | 19% | 1018.1 hPa | 0 mm | - | - | - |
| 1777802592 | 22.78° C | 19% | 1018.2 hPa | 0 mm | - | - | - |
| 1777802337 | 23.33° C | 19% | 1018.3 hPa | 0 mm | - | - | - |
| 1777802067 | 22.78° C | 20% | 1018.3 hPa | 0 mm | - | - | - |
| 1777801786 | 22.78° C | 20% | 1018.3 hPa | 0 mm | - | - | - |
| 1777801507 | 22.22° C | 21% | 1018.4 hPa | 0 mm | - | - | - |
| 1777801240 | 22.22° C | 20% | 1018.4 hPa | 0 mm | - | - | - |
| 1777800974 | 21.67° C | 19% | 1018.5 hPa | 0 mm | - | - | - |
| 1777800707 | 21.67° C | 20% | 1018.5 hPa | 0 mm | - | - | - |
| 1777800437 | 21.67° C | 19% | 1018.5 hPa | 0 mm | - | - | - |
| 1777800186 | 21.67° C | 20% | 1018.6 hPa | 0 mm | - | - | - |
| 1777799927 | 21.67° C | 18% | 1018.6 hPa | 0 mm | - | - | - |
| 1777799662 | 22.22° C | 18% | 1018.5 hPa | 0 mm | - | - | - |
* Rain latest hour (hover to see other rain measurements)
** Current wind speed in m/s (hover to see current wind gust speed)